Location: Piolenc
(44.1794°N, 4.7641°E)
Time: 04:17:22
(UTC+00:00)

Cosmos 2237 Rocket - Pass Details

Date: 27 January 2021
Orbit: 833 x 851 km, 71.0° (Epoch: 27 February)

Event Time Altitude Azimuth Distance (km) Brightness Sun altitude
Exits shadow 03:42:47 36° 62° (ENE) 1,320 3.5 -36.0°
Drops below altitude 10° 03:46:27 10° 36° (NE) 2,482 5.1 -35.4°
Sets 03:48:59 0° 31° (NNE) 3,423 5.8 -34.9°
